When you browse on this site, cookies collect data to enhance your experience and personalize the content and advertising you see.
Visit our Privacy Policy to learn more. By continuing to use the site, you agree to this use of cookies and data.
  • In Portugal
  • List of Countries
  • For 7 days
  • Water Temperature
  • Satellite Maps
  • Weather Map
  • Weather Widgets
  • user-avatar
    Login

    Hourly Weather Litin

    Today, 19 April, Friday

    Time Temperature Precipitation Wind Pressure Humidity
    00:00 +9°C° 0.1 mm 2 mps 743 mmHg 66%
    01:00 +8°C° 0.1 mm 3 mps 743 mmHg 69%
    02:00 +8°C° 0 mm 2 mps 742 mmHg 73%
    03:00 +7°C° 0 mm 3 mps 742 mmHg 76%
    04:00 +5°C° 0 mm 3 mps 742 mmHg 79%
    05:00 +5°C° 0 mm 3 mps 742 mmHg 82%
    06:00 +6°C° 0 mm 4 mps 742 mmHg 79%
    07:00 +7°C° 0 mm 4 mps 743 mmHg 76%
    08:00 +8°C° 0 mm 5 mps 743 mmHg 71%
    09:00 +9°C° 0.1 mm 5 mps 743 mmHg 64%
    10:00 +10°C° 0.1 mm 6 mps 744 mmHg 56%
    11:00 +11°C° 0.1 mm 6 mps 744 mmHg 48%
    12:00 +13°C° 0.2 mm 6 mps 744 mmHg 48%
    13:00 +13°C° 0.2 mm 6 mps 744 mmHg 47%
    14:00 +13°C° 0.2 mm 6 mps 745 mmHg 47%
    15:00 +11°C° 0.3 mm 6 mps 745 mmHg 49%
    16:00 +11°C° 0.3 mm 6 mps 745 mmHg 51%
    17:00 +10°C° 0.3 mm 5 mps 745 mmHg 52%
    18:00 +10°C° 0.1 mm 4 mps 745 mmHg 58%
    19:00 +7°C° 0.1 mm 4 mps 746 mmHg 64%
    20:00 +7°C° 0.1 mm 3 mps 746 mmHg 70%
    21:00 +6°C° 0 mm 2 mps 746 mmHg 71%
    22:00 +6°C° 0 mm 2 mps 746 mmHg 73%
    23:00 +6°C° 0 mm 1 mps 746 mmHg 74%

    Tomorrow, 20 April, Saturday

    Time Temperature Precipitation Wind Pressure Humidity
    00:00 +6°C° 0 mm 1 mps 746 mmHg 74%
    01:00 +6°C° 0 mm 1 mps 746 mmHg 75%
    02:00 +5°C° 0 mm 1 mps 746 mmHg 76%
    03:00 +5°C° 0 mm 1 mps 746 mmHg 76%
    04:00 +5°C° 0 mm 1 mps 746 mmHg 76%
    05:00 +4°C° 0 mm 1 mps 746 mmHg 76%
    06:00 +6°C° 0 mm 1 mps 746 mmHg 70%
    07:00 +8°C° 0 mm 1 mps 746 mmHg 64%
    08:00 +9°C° 0 mm 1 mps 747 mmHg 58%
    09:00 +10°C° 0 mm 1 mps 746 mmHg 53%
    10:00 +10°C° 0 mm 2 mps 746 mmHg 49%
    11:00 +12°C° 0 mm 2 mps 746 mmHg 44%
    12:00 +12°C° 0 mm 2 mps 746 mmHg 44%
    13:00 +12°C° 0 mm 1 mps 746 mmHg 44%
    14:00 +13°C° 0 mm 1 mps 746 mmHg 44%
    15:00 +13°C° 0 mm 1 mps 745 mmHg 45%
    16:00 +13°C° 0 mm 1 mps 745 mmHg 46%
    17:00 +13°C° 0 mm 1 mps 745 mmHg 47%
    18:00 +11°C° 0 mm 1 mps 744 mmHg 51%
    19:00 +10°C° 0 mm 1 mps 744 mmHg 54%
    20:00 +9°C° 0 mm 1 mps 744 mmHg 58%
    21:00 +9°C° 0 mm 1 mps 744 mmHg 59%
    22:00 +8°C° 0 mm 2 mps 744 mmHg 61%
    23:00 +8°C° 0 mm 2 mps 744 mmHg 62%

    Day after tomorrow, 21 April, Sunday

    Time Temperature Precipitation Wind Pressure Humidity
    00:00 +7°C° 0 mm 2 mps 743 mmHg 64%
    01:00 +7°C° 0 mm 2 mps 743 mmHg 66%
    02:00 +6°C° 0 mm 2 mps 743 mmHg 68%
    03:00 +6°C° 0.1 mm 2 mps 743 mmHg 70%
    04:00 +6°C° 0.1 mm 2 mps 742 mmHg 72%
    05:00 +6°C° 0.1 mm 2 mps 742 mmHg 74%
    06:00 +7°C° 0.1 mm 2 mps 742 mmHg 72%
    07:00 +7°C° 0.1 mm 2 mps 742 mmHg 70%
    08:00 +8°C° 0.1 mm 2 mps 743 mmHg 68%
    09:00 +9°C° 0 mm 3 mps 743 mmHg 62%
    10:00 +11°C° 0 mm 3 mps 743 mmHg 56%
    11:00 +12°C° 0 mm 4 mps 743 mmHg 51%
    12:00 +12°C° 0.1 mm 4 mps 742 mmHg 50%
    13:00 +13°C° 0.1 mm 4 mps 742 mmHg 49%
    14:00 +13°C° 0.1 mm 5 mps 742 mmHg 48%
    15:00 +13°C° 0 mm 5 mps 742 mmHg 49%
    16:00 +13°C° 0 mm 5 mps 742 mmHg 49%
    17:00 +12°C° 0 mm 5 mps 742 mmHg 50%
    18:00 +11°C° 0 mm 4 mps 742 mmHg 54%
    19:00 +8°C° 0 mm 4 mps 743 mmHg 58%
    20:00 +8°C° 0 mm 3 mps 743 mmHg 62%
    21:00 +7°C° 0 mm 3 mps 743 mmHg 63%
    22:00 +7°C° 0 mm 3 mps 743 mmHg 64%
    23:00 +5°C° 0 mm 3 mps 744 mmHg 66%

    22 April, Monday

    Time Temperature Precipitation Wind Pressure Humidity
    00:00 +5°C° 0 mm 3 mps 744 mmHg 67%
    01:00 +4°C° 0 mm 3 mps 744 mmHg 68%
    02:00 +4°C° 0 mm 3 mps 744 mmHg 69%
    03:00 +4°C° 0 mm 3 mps 744 mmHg 71%
    04:00 +4°C° 0 mm 3 mps 744 mmHg 72%
    05:00 +3°C° 0 mm 3 mps 744 mmHg 74%
    06:00 +5°C° 0 mm 3 mps 745 mmHg 68%
    07:00 +7°C° 0 mm 4 mps 745 mmHg 63%
    08:00 +8°C° 0 mm 4 mps 746 mmHg 57%
    09:00 +9°C° 0 mm 5 mps 746 mmHg 52%
    10:00 +10°C° 0 mm 5 mps 746 mmHg 48%
    11:00 +11°C° 0 mm 6 mps 746 mmHg 43%
    12:00 +12°C° 0 mm 5 mps 746 mmHg 44%
    13:00 +12°C° 0 mm 5 mps 746 mmHg 44%
    14:00 +12°C° 0 mm 5 mps 746 mmHg 45%
    15:00 +12°C° 0 mm 5 mps 746 mmHg 46%
    16:00 +12°C° 0 mm 5 mps 746 mmHg 47%
    17:00 +12°C° 0 mm 5 mps 746 mmHg 48%
    18:00 +11°C° 0 mm 4 mps 746 mmHg 54%
    19:00 +8°C° 0 mm 4 mps 746 mmHg 59%
    20:00 +8°C° 0 mm 3 mps 746 mmHg 65%
    21:00 +7°C° 0 mm 3 mps 746 mmHg 66%
    22:00 +7°C° 0 mm 3 mps 746 mmHg 68%
    23:00 +5°C° 0 mm 3 mps 747 mmHg 69%

    23 April, Tuesday

    Time Temperature Precipitation Wind Pressure Humidity
    00:00 +5°C° 0 mm 3 mps 747 mmHg 69%
    01:00 +5°C° 0 mm 3 mps 746 mmHg 70%
    02:00 +4°C° 0 mm 3 mps 746 mmHg 70%
    03:00 +4°C° 0 mm 3 mps 747 mmHg 71%
    04:00 +4°C° 0 mm 3 mps 747 mmHg 72%
    05:00 +3°C° 0 mm 3 mps 747 mmHg 73%
    06:00 +5°C° 0 mm 4 mps 747 mmHg 69%
    07:00 +7°C° 0 mm 4 mps 747 mmHg 65%
    08:00 +8°C° 0 mm 5 mps 748 mmHg 61%
    09:00 +10°C° 0 mm 5 mps 748 mmHg 56%
    10:00 +11°C° 0 mm 6 mps 748 mmHg 50%
    11:00 +13°C° 0 mm 6 mps 748 mmHg 45%
    12:00 +14°C° 0 mm 6 mps 747 mmHg 45%
    13:00 +14°C° 0 mm 6 mps 747 mmHg 44%
    14:00 +15°C° 0 mm 6 mps 747 mmHg 44%
    15:00 +14°C° 0 mm 6 mps 746 mmHg 45%
    16:00 +14°C° 0 mm 6 mps 746 mmHg 47%
    17:00 +14°C° 0 mm 5 mps 746 mmHg 48%
    18:00 +13°C° 0 mm 5 mps 746 mmHg 49%
    19:00 +12°C° 0 mm 5 mps 746 mmHg 51%
    20:00 +10°C° 0 mm 5 mps 746 mmHg 52%
    21:00 +10°C° 0 mm 5 mps 746 mmHg 54%
    22:00 +9°C° 0 mm 5 mps 746 mmHg 56%
    23:00 +9°C° 0 mm 5 mps 747 mmHg 58%

    24 April, Wednesday

    Time Temperature Precipitation Wind Pressure Humidity
    00:00 +8°C° 0 mm 4 mps 747 mmHg 61%
    01:00 +7°C° 0 mm 4 mps 746 mmHg 64%
    02:00 +6°C° 0 mm 4 mps 746 mmHg 68%
    03:00 +5°C° 0 mm 4 mps 746 mmHg 69%
    04:00 +5°C° 0 mm 4 mps 746 mmHg 70%
    05:00 +5°C° 0 mm 4 mps 746 mmHg 71%
    06:00 +6°C° 0 mm 5 mps 747 mmHg 66%
    07:00 +8°C° 0 mm 6 mps 747 mmHg 61%
    08:00 +9°C° 0 mm 7 mps 747 mmHg 56%
    09:00 +10°C° 0 mm 7 mps 747 mmHg 53%
    10:00 +12°C° 0 mm 7 mps 747 mmHg 50%
    11:00 +14°C° 0 mm 7 mps 747 mmHg 48%
    12:00 +14°C° 0 mm 7 mps 747 mmHg 46%
    13:00 +15°C° 0 mm 7 mps 747 mmHg 45%
    14:00 +15°C° 0 mm 7 mps 746 mmHg 43%
    15:00 +15°C° 0 mm 6 mps 746 mmHg 45%
    16:00 +15°C° 0 mm 6 mps 746 mmHg 46%
    17:00 +15°C° 0 mm 6 mps 746 mmHg 48%
    18:00 +14°C° 0 mm 5 mps 746 mmHg 52%
    19:00 +12°C° 0 mm 4 mps 746 mmHg 57%
    20:00 +11°C° 0 mm 4 mps 746 mmHg 61%
    21:00 +11°C° 0 mm 4 mps 746 mmHg 61%
    22:00 +11°C° 0 mm 4 mps 746 mmHg 61%
    23:00 +11°C° 0 mm 4 mps 746 mmHg 61%
    Show more